Regional Weather Roundup
Issued by NWS

Home | Current Version | Previous Version | Graphics & Text | Print | Product List | Glossary Off
Versions: 1 2 3 4 5 6 7 8 9 10 11 12 13 14 15 16 17 18 19 20 21 22 23 24 25 26 27 28 29 30 31 32 33 34 35 36 37 38 39 40 41 42 43 44 45 46 47 48 49 50

000
ASUS43 KMPX 161710
RWRMN
WEATHER ROUNDUP FOR MINNESOTA
NATIONAL WEATHER SERVICE TWIN CITIES/CHANHASSEN MN
1100 AM CST MON JAN 16 2017


NOTE: "FAIR" INDICATES FEW OR NO CLOUDS BELOW 12,000 FEET WITH NO
SIGNIFICANT WEATHER AND/OR OBSTRUCTIONS TO VISIBILITY. N/A MEANS
CURRENT SKY AND/OR WEATHER CONDITIONS ARE NOT AVAILABLE.

MNZ060>063-068>070-161800-
   Twin Cities Metro

CITY           SKY/WX    TMP DP  RH WIND       PRES   REMARKS
TWIN CITIES    CLOUDY    24  16  71 VRB5      30.16F WCI  18
ST PAUL        CLOUDY    22  18  85 CALM      30.18F
CRYSTAL        CLOUDY    22  16  78 CALM      30.16S
BLAINE         PTSUNNY   25  19  80 SE5       30.16S WCI  19
LAKEVILLE      CLOUDY    18  16  93 CALM      30.15S
EDEN PRAIRIE   CLOUDY    26  17  68 NE5       30.14F WCI  20
SOUTH ST PAUL  CLOUDY    23  16  77 CALM      30.16F
LAKE ELMO      FAIR      19  18  93 NW5       30.18S WCI  13
$$
MNZ001>005-007-008-013>017-022>024-027-028-161800-
   Northwest Minnesota

CITY           SKY/WX    TMP DP  RH WIND       PRES   REMARKS
BEMIDJI        CLOUDY    18  16  93 CALM      30.06R
HALLOCK        CLOUDY     9   3  78 S7        30.07R WCI  -3
ROSEAU         CLOUDY    10   5  79 S6        30.05S WCI   1
WARROAD        CLOUDY    16   9  73 SW5       30.06S WCI   9
THIEF RVR FALL CLOUDY    15   9  76 SW9       30.07S WCI   3
CROOKSTON      CLOUDY    10   7  85 S7        30.09S WCI   0
FOSSTON        CLOUDY    18  12  79 S10       30.07S WCI   6
DETROIT LAKES  CLOUDY    19  18  93 CALM      30.08S FOG
MOORHEAD       CLOUDY    12   9  85 S7        30.12R WCI   2
PARK RAPIDS    CLOUDY    15  12  88 SE3       30.07S FOG
MAHNOMEN       FAIR      16  13  86 S7        30.07S WCI   6
$$
MNZ006-009>011-018-025>026-161800-
   North Central Minnesota

CITY           SKY/WX    TMP DP  RH WIND       PRES   REMARKS
BAUDETTE       CLOUDY    12   7  80 CALM      30.06R
FLAG ISLAND    CLOUDY     9   3  78 SE3       30.05S
INTL FALLS     CLOUDY    21  15  78 SW5       30.07S WCI  15
WASKISH        SUNNY     25  18  74 SW6       30.07S WCI  18
BIG FORK       SUNNY     19  18  93 S3        30.07F
LONGVILLE      CLOUDY    23  18  80 CALM      30.09R
GRAND RAPIDS   CLOUDY    24  20  84 CALM      30.11S
CRANE LAKE     CLOUDY    21  16  79 S3        30.11S
ORR            SUNNY     23  16  74 CALM      30.06S
COOK           SUNNY     25  18  74 SW3       30.09S
WALKER         FAIR      21  16  83 E3        30.06F
$$
MNZ012-019>021-037-161800-
   Northeast Minnesota

CITY           SKY/WX    TMP DP  RH WIND       PRES   REMARKS
DULUTH         CLOUDY    26  21  81 S3        30.11R
ELY            SUNNY     21  18  86 CALM      30.08F
HIBBING        FOG       11  10  96 CALM      30.09F VSB 1
EVELETH        CLOUDY    17  15  92 CALM      30.10F FOG
DULUTH HARBOR  CLOUDY    21  18  86 CALM      30.17S
TWO HARBORS    CLOUDY    28  23  80 W5        30.09F WCI  23
SILVER BAY     SUNNY     27  19  74 CALM      30.09S
GRAND MARAIS     N/A     33  26  75 SW7       30.13F WCI  27
G MARAIS ARPRT SUNNY     28  12  50 N3        30.07F
$$
MNZ029>031-032-039>041-046>048-054>057-064-161800-
   West Central Minnesota

CITY           SKY/WX    TMP DP  RH WIND       PRES   REMARKS
FERGUS FALLS   CLOUDY    18  14  86 CALM      30.15S
WHEATON        CLOUDY    16  12  86 SE5       30.11S WCI   9
MORRIS         CLOUDY    18  14  86 E6        30.09R WCI   9
ALEXANDRIA     CLOUDY    18  14  84 CALM      30.09S
ELBOW LAKE     FAIR      18  14  82 E7        30.09F FOG     WCI   9
WADENA         CLOUDY    16  12  86 CALM      30.08F FOG
GLENWOOD       CLOUDY    16  12  86 NE3       30.10S
APPLETON       CLOUDY    18  12  79 SE3       30.11R
ORTONVILLE     CLOUDY    16  12  86 CALM      30.09R
MADISON        CLOUDY    18  12  79 CALM      30.11R
WILLMAR        FAIR      19  19 100 SE7       30.12F WCI  10
$$
MNZ033>034-036-042>043-049>051-058-059-161800-
   Central Minnesota

CITY           SKY/WX    TMP DP  RH WIND       PRES   REMARKS
ST CLOUD       CLOUDY    18  16  92 SE7       30.13S FOG     WCI   9
SAUK CENTRE    FAIR      13  11  92 CALM      30.11S FOG
PAYNESVILLE    MOSUNNY   23  21  94 CALM      30.12S
AITKIN         CLOUDY    25  19  80 S5        30.10S WCI  19
PINE RIVER     CLOUDY    16  14  93 SE5       30.12F FOG     WCI   9
BRAINERD       CLOUDY    18  16  92 SW3       30.11S FOG
STAPLES        CLOUDY    18  16  93 S3        30.09F
LONG PRAIRIE   FAIR      14  14 100 CALM      30.11S FOG
LITTLE FALLS   CLOUDY    18  14  86 CALM      30.13S FOG
LITCHFIELD     CLOUDY    25  21  86 SE6       30.13S WCI  18
BUFFALO        CLOUDY    25  19  77 CALM      30.16S
MAPLE LAKE     CLOUDY    24  24  98 SE6       30.16S FOG     WCI  17
HUTCHINSON     CLOUDY    26  21  82 NE3       30.13F
$$
MNZ037-044-045-052-053-161800-
   East Central Minnesota

CITY           SKY/WX    TMP DP  RH WIND       PRES   REMARKS
PRINCETON      CLOUDY    21  19  93 CALM      30.14F FOG
MORA           CLOUDY    16  12  86 CALM      30.16S FOG
CAMBRIDGE      CLOUDY    21  16  79 S5        30.14F WCI  15
RUSH CITY        N/A     19  18  93 S7        30.16F WCI  10
MOOSE LAKE     CLOUDY    19  18  93 CALM      30.12F FOG
HINCKLEY       FAIR      18  18 100 CALM      30.15S FOG
CLOQUET        CLOUDY    21  18  86 S3        30.11S
MCGREGOR       CLOUDY    21  19  93 S5        30.12S WCI  15
$$
MNZ071>073-080-081-089-090-097-098-161800-
   Southwest Minnesota

CITY           SKY/WX    TMP DP  RH WIND       PRES   REMARKS
MONTEVIDEO     MOSUNNY   23  19  86 CALM      30.12F
GRANITE FALLS  CLOUDY    24  20  85 CALM      30.12F
CANBY            N/A     27  19  69 CALM      30.11S
MARSHALL       CLOUDY    30  23  75 CALM      30.10F
REDWOOD FALLS  CLOUDY    27  20  75 CALM      30.11F
OLIVIA         CLOUDY    28  23  80 E6        30.11S WCI  22
PIPESTONE      CLOUDY    30  23  74 NE3       30.05R
WINDOM         CLOUDY    28  27  93 NE5       30.08F WCI  23
WORTHINGTON    CLOUDY    28  26  92 NE9       30.07S WCI  19
JACKSON        CLOUDY    28  27  93 NE8       30.08S FOG     WCI  20
TRACY          CLOUDY    28  22  79 CALM      30.09S
SLAYTON        CLOUDY    27  23  86 NE3       30.08R
$$
MNZ065>067-074>077-082>085-091>093-161800-
   South Central Minnesota

CITY           SKY/WX    TMP DP  RH WIND       PRES   REMARKS
MANKATO        CLOUDY    29  23  78 E5        30.12F WCI  24
NEW ULM        CLOUDY    27  25  93 E3        30.12S FOG
ST JAMES       CLOUDY    27  25  93 NE6       30.12S WCI  20
FAIRMONT       CLOUDY    30  27  88 NE8       30.09F FOG     WCI  22
GLENCOE        CLOUDY    26  23  89 E5        30.12F WCI  20
FARIBAULT        N/A     25  18  74 CALM      30.13F
OWATONNA       CLOUDY    28  23  80 E6        30.12F WCI  22
WASECA         CLOUDY    28  23  80 NE5       30.13F WCI  23
ALBERT LEA     CLOUDY    30  30 100 E7        30.09F FOG     WCI  23
$$
MNZ078>079-086>088-094>096-161800-
   Southeast Minnesota

CITY           SKY/WX    TMP DP  RH WIND       PRES   REMARKS
ROCHESTER      CLOUDY    28  26  92 E7        30.12F WCI  21
RED WING       CLOUDY    19  14  79 SE5       30.17F WCI  13
STANTON        CLOUDY    23  16  77 CALM      30.14S
DODGE CENTER   CLOUDY    28  25  86 CALM      30.11F
WINONA         CLOUDY    25  19  80 CALM      30.19F
AUSTIN         CLOUDY    32  28  86 E8        30.10F FOG     WCI  25
PRESTON        CLOUDY    29  27  91 NE6       30.13F FOG     WCI  23
$$
ABBREVIATIONS USED IN REMARKS
   TC - TEMPERATURES IN CELSIUS
  WCI - WIND CHILL INDEX
   HX - HEAT INDEX
  VSB - VISIBILITY
$$



USA.gov is the U.S. government's official web portal to all federal, state and local government web resources and services.